Location: Newark
(15.4608°S, 41.1635°W)
Time: 08:45:02
(UTC+00:00)

Transit 4A - Pass Details

Date: 11 March 2021
Orbit: 869 x 975 km, 66.8° (Epoch: 22 April)

Event Time Altitude Azimuth Distance (km) Brightness Sun altitude
Rises 21:35:23 0° 352° (N) 3,441 10.9 -8.9°
Reaches altitude 10° 21:37:55 10° 358° (N) 2,505 10.1 -9.5°
Maximum altitude 21:43:27 48° 71° (ENE) 1,120 8.0 -10.9°
Drops below altitude 10° 21:49:03 10° 144° (SE) 2,536 9.9 -12.2°
Sets 21:51:38 0° 150° (SSE) 3,488 10.7 -12.8°
